When you browse on this site, cookies collect data to enhance your experience and personalize the content and advertising you see.
Visit our Privacy Policy to learn more. By continuing to use the site, you agree to this use of cookies and data.
  • In Hungary
  • List of Countries
  • For 7 days
  • Water Temperature
  • Weather Map
  • News
  • Weather Widgets
  • user-avatar
    Login

    Hourly Weather Panika

    Today, 25 January, Saturday

    Time Temperature Precipitation Wind Pressure Humidity
    00:00 -6°C° 0.1 mm 8 mps 739 mmHg 95%
    01:00 -6°C° 0.5 mm 8 mps 739 mmHg 95%
    02:00 -5°C° 0.5 mm 8 mps 738 mmHg 95%
    03:00 -4°C° 0.5 mm 8 mps 738 mmHg 95%
    04:00 -3°C° 0.2 mm 7 mps 738 mmHg 96%
    05:00 -2°C° 0.2 mm 7 mps 737 mmHg 97%
    06:00 -2°C° 0.2 mm 7 mps 737 mmHg 99%
    07:00 -2°C° 0.2 mm 7 mps 737 mmHg 99%
    08:00 -2°C° 0.2 mm 6 mps 737 mmHg 99%
    09:00 -2°C° 0.2 mm 6 mps 737 mmHg 99%
    10:00 -2°C° 0.2 mm 7 mps 737 mmHg 99%
    11:00 -2°C° 0.2 mm 7 mps 737 mmHg 98%
    12:00 -2°C° 0.2 mm 7 mps 737 mmHg 98%
    13:00 -2°C° 0.1 mm 7 mps 737 mmHg 96%
    14:00 -2°C° 0.1 mm 6 mps 737 mmHg 94%
    15:00 -2°C° 0.1 mm 6 mps 737 mmHg 92%
    16:00 -2°C° 0.1 mm 7 mps 737 mmHg 94%
    17:00 -2°C° 0.1 mm 7 mps 736 mmHg 95%
    18:00 -2°C° 0.1 mm 7 mps 736 mmHg 97%
    19:00 -2°C° 0.2 mm 8 mps 735 mmHg 95%
    20:00 -2°C° 0.2 mm 8 mps 735 mmHg 94%
    21:00 -3°C° 0.2 mm 9 mps 734 mmHg 92%
    22:00 -4°C° 0.3 mm 8 mps 735 mmHg 89%
    23:00 -5°C° 0.3 mm 8 mps 735 mmHg 86%

    Tomorrow, 26 January, Sunday

    Time Temperature Precipitation Wind Pressure Humidity
    00:00 -4°C° 0.3 mm 7 mps 735 mmHg 82%
    01:00 -6°C° 0 mm 7 mps 736 mmHg 84%
    02:00 -7°C° 0 mm 7 mps 737 mmHg 86%
    03:00 -7°C° 0 mm 7 mps 737 mmHg 87%
    04:00 -7°C° 0 mm 8 mps 738 mmHg 88%
    05:00 -7°C° 0 mm 8 mps 738 mmHg 89%
    06:00 -7°C° 0 mm 8 mps 738 mmHg 89%
    07:00 -7°C° 0 mm 8 mps 739 mmHg 89%
    08:00 -7°C° 0 mm 8 mps 740 mmHg 88%
    09:00 -7°C° 0 mm 8 mps 741 mmHg 87%
    10:00 -7°C° 0 mm 7 mps 742 mmHg 87%
    11:00 -7°C° 0 mm 7 mps 743 mmHg 87%
    12:00 -7°C° 0 mm 7 mps 744 mmHg 87%
    13:00 -7°C° 0 mm 7 mps 745 mmHg 87%
    14:00 -6°C° 0 mm 6 mps 746 mmHg 87%
    15:00 -6°C° 0 mm 6 mps 746 mmHg 87%
    16:00 -6°C° 0 mm 5 mps 747 mmHg 88%
    17:00 -7°C° 0 mm 5 mps 747 mmHg 89%
    18:00 -8°C° 0 mm 4 mps 748 mmHg 90%
    19:00 -8°C° 0 mm 4 mps 748 mmHg 91%
    20:00 -8°C° 0 mm 5 mps 748 mmHg 91%
    21:00 -8°C° 0 mm 5 mps 748 mmHg 91%
    22:00 -7°C° 0 mm 5 mps 747 mmHg 90%
    23:00 -8°C° 0 mm 6 mps 747 mmHg 89%

    Day after tomorrow, 27 January, Monday

    Time Temperature Precipitation Wind Pressure Humidity
    00:00 -8°C° 0 mm 6 mps 747 mmHg 88%
    01:00 -6°C° 0.1 mm 6 mps 746 mmHg 89%
    02:00 -7°C° 0.1 mm 7 mps 746 mmHg 91%
    03:00 -6°C° 0.1 mm 7 mps 745 mmHg 93%
    04:00 -6°C° 0.1 mm 7 mps 745 mmHg 93%
    05:00 -4°C° 0.1 mm 7 mps 745 mmHg 93%
    06:00 -5°C° 0.1 mm 8 mps 744 mmHg 92%
    07:00 -4°C° 0.1 mm 8 mps 744 mmHg 94%
    08:00 -4°C° 0.1 mm 8 mps 745 mmHg 95%
    09:00 -2°C° 0.1 mm 8 mps 745 mmHg 97%
    10:00 -2°C° 0.1 mm 7 mps 745 mmHg 98%
    11:00 -2°C° 0.1 mm 7 mps 745 mmHg 98%
    12:00 -2°C° 0.1 mm 6 mps 745 mmHg 99%
    13:00 -2°C° 0 mm 6 mps 746 mmHg 99%
    14:00 -2°C° 0 mm 6 mps 746 mmHg 99%
    15:00 -2°C° 0 mm 6 mps 746 mmHg 99%
    16:00 -1°C° 0 mm 5 mps 747 mmHg 99%
    17:00 -1°C° 0 mm 4 mps 747 mmHg 98%
    18:00 0°C° 0 mm 3 mps 748 mmHg 98%
    19:00 0°C° 0.1 mm 3 mps 748 mmHg 98%
    20:00 0°C° 0.1 mm 3 mps 748 mmHg 98%
    21:00 0°C° 0.1 mm 3 mps 749 mmHg 98%
    22:00 0°C° 0.1 mm 3 mps 749 mmHg 98%
    23:00 0°C° 0.1 mm 3 mps 749 mmHg 98%

    28 January, Tuesday

    Time Temperature Precipitation Wind Pressure Humidity
    00:00 +1°C° 0.1 mm 2 mps 749 mmHg 98%
    01:00 +1°C° 0.1 mm 2 mps 749 mmHg 98%
    02:00 +1°C° 0.1 mm 2 mps 749 mmHg 98%
    03:00 +1°C° 0.1 mm 2 mps 749 mmHg 98%
    04:00 +1°C° 0.3 mm 2 mps 749 mmHg 98%
    05:00 +1°C° 0.3 mm 2 mps 749 mmHg 98%
    06:00 +1°C° 0.3 mm 2 mps 749 mmHg 98%
    07:00 -1°C° 0.3 mm 2 mps 749 mmHg 98%
    08:00 -1°C° 0.3 mm 3 mps 749 mmHg 98%
    09:00 -1°C° 0.3 mm 3 mps 749 mmHg 98%
    10:00 -1°C° 0.1 mm 3 mps 749 mmHg 99%
    11:00 -1°C° 0.1 mm 3 mps 749 mmHg 99%
    12:00 -1°C° 0.1 mm 3 mps 750 mmHg 99%
    13:00 -1°C° 0.1 mm 3 mps 749 mmHg 99%
    14:00 -1°C° 0.1 mm 3 mps 749 mmHg 98%
    15:00 -2°C° 0.1 mm 4 mps 749 mmHg 98%
    16:00 -2°C° 0 mm 4 mps 749 mmHg 98%
    17:00 -1°C° 0 mm 3 mps 749 mmHg 98%
    18:00 -1°C° 0 mm 3 mps 749 mmHg 97%
    19:00 -1°C° 0 mm 3 mps 749 mmHg 98%
    20:00 0°C° 0 mm 3 mps 749 mmHg 98%
    21:00 0°C° 0 mm 3 mps 749 mmHg 98%
    22:00 -1°C° 0.2 mm 4 mps 749 mmHg 98%
    23:00 -2°C° 0.2 mm 4 mps 749 mmHg 98%

    29 January, Wednesday

    Time Temperature Precipitation Wind Pressure Humidity
    00:00 -2°C° 0.2 mm 4 mps 749 mmHg 98%
    01:00 -2°C° 0.1 mm 4 mps 749 mmHg 97%
    02:00 -2°C° 0.1 mm 4 mps 749 mmHg 97%
    03:00 -2°C° 0.1 mm 4 mps 749 mmHg 97%
    04:00 -3°C° 0.1 mm 4 mps 749 mmHg 97%
    05:00 -3°C° 0.1 mm 4 mps 749 mmHg 96%
    06:00 -3°C° 0.1 mm 4 mps 749 mmHg 96%
    07:00 -3°C° 0.1 mm 4 mps 749 mmHg 96%
    08:00 -3°C° 0.1 mm 4 mps 749 mmHg 96%
    09:00 -3°C° 0.1 mm 4 mps 749 mmHg 96%
    10:00 -3°C° 0.1 mm 4 mps 748 mmHg 96%
    11:00 -2°C° 0.1 mm 4 mps 748 mmHg 96%
    12:00 -2°C° 0.1 mm 4 mps 748 mmHg 96%
    13:00 -2°C° 0.1 mm 4 mps 748 mmHg 96%
    14:00 -2°C° 0.1 mm 4 mps 748 mmHg 97%
    15:00 -2°C° 0.1 mm 4 mps 747 mmHg 97%
    16:00 -2°C° 0 mm 4 mps 747 mmHg 97%
    17:00 -2°C° 0 mm 5 mps 747 mmHg 96%
    18:00 -2°C° 0 mm 5 mps 747 mmHg 96%
    19:00 -2°C° 0.1 mm 5 mps 747 mmHg 96%
    20:00 -4°C° 0.1 mm 5 mps 747 mmHg 96%
    21:00 -4°C° 0.1 mm 5 mps 747 mmHg 96%
    22:00 -4°C° 0.1 mm 5 mps 746 mmHg 95%
    23:00 -4°C° 0.1 mm 6 mps 746 mmHg 95%

    30 January, Thursday

    Time Temperature Precipitation Wind Pressure Humidity
    00:00 -4°C° 0.1 mm 6 mps 746 mmHg 95%
    01:00 -4°C° 0.2 mm 6 mps 745 mmHg 95%
    02:00 -4°C° 0.2 mm 6 mps 744 mmHg 95%
    03:00 -4°C° 0.2 mm 6 mps 744 mmHg 96%
    04:00 -3°C° 0.3 mm 6 mps 743 mmHg 97%
    05:00 -2°C° 0.3 mm 6 mps 743 mmHg 98%
    06:00 -1°C° 0.3 mm 6 mps 742 mmHg 99%
    07:00 -1°C° 0.4 mm 6 mps 741 mmHg 99%
    08:00 -1°C° 0.4 mm 6 mps 740 mmHg 99%
    09:00 -1°C° 0.4 mm 6 mps 740 mmHg 99%
    10:00 -1°C° 0.8 mm 7 mps 739 mmHg 99%
    11:00 -1°C° 0.8 mm 7 mps 739 mmHg 99%
    12:00 -1°C° 0.8 mm 8 mps 738 mmHg 99%
    13:00 -1°C° 0.2 mm 9 mps 739 mmHg 98%
    14:00 -3°C° 0.2 mm 9 mps 739 mmHg 97%
    15:00 -3°C° 0.2 mm 10 mps 739 mmHg 96%
    16:00 -3°C° 0 mm 9 mps 740 mmHg 93%
    17:00 -2°C° 0 mm 8 mps 740 mmHg 89%
    18:00 -3°C° 0 mm 7 mps 741 mmHg 85%
    19:00 -3°C° 0 mm 6 mps 742 mmHg 87%
    20:00 -4°C° 0 mm 6 mps 742 mmHg 88%
    21:00 -5°C° 0 mm 6 mps 742 mmHg 89%
    22:00 -5°C° 0 mm 6 mps 743 mmHg 89%
    23:00 -5°C° 0 mm 6 mps 743 mmHg 89%
    Show more